K7MLX Weather Reports


time (UTC)temp
F
wind
direction
speed
knots
gust
knots
rain 1hr
in
rain 24hr
in
rain mn
in
humidity
%
barometer
mb
20260507051538 52 179 1.7 6.1 0.00 0.00 0.00 80 1021.2
20260507050040 53 161 0.9 4.3 0.00 0.00 0.00 80 1021.2
20260507044539 53 0 1.7 5.2 0.00 0.00 0.00 80 1021.2
20260507043038 53 161 0.9 4.3 0.00 0.00 0.00 80 1021.1
20260507041550 53 171 0.9 4.3 0.00 0.00 0.00 79 1021.0
20260507040038 54 173 0.9 6.1 0.00 0.00 0.00 79 1021.0
20260507034537 54 190 0.9 6.1 0.00 0.00 0.00 78 1020.8
20260507033037 55 154 0.9 5.2 0.00 0.00 0.00 78 1020.9
20260507031540 55 186 0.0 3.5 0.00 0.00 0.00 77 1020.8
20260507030042 55 171 0.9 3.5 0.00 0.00 0.00 77 1020.7
20260507024538 55 172 0.9 4.3 0.00 0.00 0.00 77 1020.6
20260507023037 56 199 0.9 4.3 0.00 0.00 0.00 77 1020.5
20260507021535 56 167 0.0 5.2 0.00 0.00 0.00 77 1020.5
20260507020035 56 167 0.9 5.2 0.00 0.00 0.00 77 1020.4
20260507014554 56 168 0.9 4.3 0.00 0.00 0.00 77 1020.5
20260507013051 56 146 0.9 5.2 0.00 0.00 0.00 77 1020.5
20260507011540 56 159 1.7 6.1 0.00 0.00 0.00 77 1020.6
20260507010035 56 225 2.6 6.1 0.00 0.00 0.00 76 1020.5
20260507004536 56 157 1.7 5.2 0.00 0.00 0.00 76 1020.7
20260507003038 56 190 1.7 6.1 0.00 0.00 0.00 76 1020.7
20260507001555 56 164 0.9 4.3 0.00 0.00 0.00 77 1020.6
20260507000040 56 169 0.0 6.1 0.00 0.00 0.00 77 1020.6
20260506234536 56 189 1.7 5.2 0.00 0.00 0.00 77 1020.8
20260506233043 55 158 1.7 6.1 0.00 0.00 0.00 77 1020.7
20260506231541 56 171 2.6 9.6 0.00 0.00 0.00 76 1020.8
20260506230043 56 157 2.6 7.0 0.00 0.00 0.00 75 1020.8
20260506224537 56 170 0.9 6.1 0.00 0.00 0.00 76 1020.8
20260506223038 56 205 1.7 6.1 0.00 0.00 0.00 76 1020.9
20260506221537 56 153 1.7 6.1 0.00 0.00 0.00 75 1021.0
20260506220036 56 157 1.7 7.8 0.00 0.00 0.00 75 1021.0
20260506214542 57 116 1.7 8.7 0.00 0.00 0.00 74 1020.9
20260506213039 57 164 0.9 8.7 0.00 0.00 0.00 74 1020.9
20260506211540 57 160 0.9 7.0 0.00 0.00 0.00 74 1021.1
20260506210040 57 150 1.7 7.0 0.00 0.00 0.00 74 1021.0
20260506204536 57 189 3.5 7.8 0.00 0.00 0.00 74 1020.9
20260506203042 57 140 3.5 8.7 0.00 0.00 0.00 74 1020.8
20260506201534 56 209 2.6 8.7 0.00 0.00 0.00 75 1020.9
20260506200042 56 231 1.7 7.0 0.00 0.00 0.00 75 1020.8
20260506194538 56 139 1.7 6.1 0.00 0.00 0.00 74 1020.7
20260506193036 55 250 1.7 5.2 0.00 0.00 0.00 75 1020.7
20260506191541 55 121 1.7 4.3 0.00 0.00 0.00 76 1020.8
20260506190040 54 146 2.6 7.0 0.00 0.00 0.00 77 1020.6
20260506184536 54 190 2.6 9.6 0.00 0.00 0.00 78 1020.6
20260506183037 53 151 0.9 7.0 0.00 0.00 0.00 79 1020.7
20260506181543 53 178 2.6 8.7 0.00 0.00 0.00 80 1020.7
20260506180048 52 0 2.6 8.7 0.00 0.00 0.00 81 1020.6
20260506174537 51 217 1.7 7.0 0.00 0.00 0.00 82 1020.1
20260506173037 51 194 1.7 6.1 0.00 0.00 0.00 84 1020.3
20260506171548 50 186 1.7 6.1 0.00 0.00 0.00 84 1020.4
20260506170037 50 125 1.7 6.1 0.00 0.00 0.00 84 1020.6
20260506164539 50 167 1.7 6.1 0.00 0.00 0.00 85 1020.4
20260506163047 50 0 1.7 10.4 0.00 0.00 0.00 86 1020.5
20260506161548 50 126 2.6 6.1 0.00 0.00 0.00 87 1019.9
20260506160036 50 175 1.7 7.0 0.00 0.00 0.00 87 1019.5
20260506154537 50 103 2.6 6.1 0.00 0.00 0.00 87 1019.6
20260506153043 49 148 2.6 7.8 0.00 0.00 0.00 87 1019.9
20260506151538 49 120 0.9 6.1 0.00 0.00 0.00 87 1020.1
20260506150037 49 138 0.9 7.0 0.00 0.00 0.00 86 1019.8
20260506144535 49 162 0.0 6.1 0.00 0.00 0.00 86 1019.7
20260506143034 49 161 1.7 5.2 0.00 0.00 0.00 85 1019.8
20260506141540 49 150 0.0 1.7 0.00 0.00 0.00 85 1019.7
20260506140045 49 0 0.0 4.3 0.00 0.00 0.00 84 1019.6
20260506134606 49 0 0.0 7.0 0.00 0.00 0.00 84 1019.6
20260506133035 49 157 0.0 3.5 0.00 0.00 0.00 84 1019.5
20260506131539 49 78 1.7 5.2 0.00 0.00 0.00 84 1019.3
20260506130040 50 0 0.9 7.8 0.00 0.00 0.00 83 1019.4
20260506124538 50 168 2.6 6.1 0.00 0.00 0.00 83 1019.0
20260506123043 50 169 1.7 7.8 0.00 0.00 0.00 83 1019.0
20260506121538 50 182 0.9 7.0 0.00 0.00 0.00 83 1018.9
20260506120043 50 193 1.7 5.2 0.00 0.00 0.00 83 1018.8
20260506114547 50 173 0.9 7.0 0.00 0.00 0.00 83 1018.8
20260506113042 50 159 2.6 6.1 0.00 0.00 0.00 83 1018.6
20260506111537 50 0 0.9 5.2 0.00 0.00 0.00 83 1018.6
20260506110036 50 174 0.9 5.2 0.00 0.00 0.00 83 1018.6
20260506104536 50 168 0.9 4.3 0.00 0.00 0.00 83 1018.4
20260506103038 50 156 1.7 4.3 0.00 0.00 0.00 83 1018.4
20260506101541 50 0 0.0 4.3 0.00 0.00 0.00 83 1018.3
20260506100038 50 158 0.9 4.3 0.00 0.00 0.00 83 1018.4
20260506094536 50 0 0.9 6.1 0.00 0.00 0.00 83 1018.2
20260506093036 50 0 0.9 4.3 0.00 0.00 0.00 82 1017.9
20260506091532 50 0 0.0 6.1 0.00 0.00 0.00 82 1017.9
20260506090040 50 153 1.7 5.2 0.00 0.00 0.00 82 1017.8
20260506084540 51 228 0.9 5.2 0.00 0.00 0.00 81 1017.6
20260506083037 51 144 1.7 5.2 0.00 0.00 0.00 81 1017.5
20260506081545 52 147 0.9 5.2 0.00 0.00 0.00 81 1017.4
20260506073042 53 143 0.9 5.2 0.00 0.00 0.00 80 1017.1
20260506071538 53 157 0.9 2.6 0.00 0.00 0.00 80 1017.0
20260506061541 55 0 0.0 5.2 0.00 0.00 0.00 79 1016.6